Temperature
25 25 24 25 26 26 26 25 25 25 26 25 24 24 24 24 24 23 23 22 22 22 21 20 20 19 19 18 18 18 17 17 17 17 16 16 16 16 16 16 15 15 15 15
25 24 25 26 26 26 25 25 25 25 26 25 24 24 25 25 24 24 23 23 23 22 21 20 20 19 19 18 18 18 17 17 17 16 16 16 16 16 15 15 15 15 15 15
25 25 26 26 25 25 25 25 25 25 25 25 25 24 24 25 24 24 24 23 23 22 22 21 20 19 19 18 18 18 17 17 17 16 16 16 16 15 15 15 15 15 15 15
25 26 26 25 25 25 24 25 25 25 24 24 25 23 23 24 24 24 24 23 23 22 22 21 20 19 19 18 18 18 17 17 17 16 16 16 15 15 15 15 15 15 15 15
25 25 25 25 25 25 25 25 25 25 24 24 25 24 24 24 24 24 24 23 23 22 22 21 20 19 19 18 18 17 17 17 17 16 16 16 15 15 15 15 15 15 15 15
25 26 26 25 26 25 25 25 25 25 24 23 24 24 23 24 24 24 24 23 23 22 22 21 20 19 19 18 18 17 17 17 17 16 16 16 15 15 15 14 14 14 14 14
25 25 26 26 25 25 25 24 23 22 22 23 25 24 24 24 25 25 24 23 23 22 21 21 20 19 19 18 18 17 17 17 16 16 16 16 15 15 15 14 14 14 14 14
24 24 25 25 25 24 25 24 22 22 22 24 25 24 23 25 25 24 24 23 23 22 21 21 20 19 19 18 18 17 17 17 16 16 16 16 15 15 15 14 14 14 14 14
24 24 25 26 26 25 24 24 24 23 24 23 24 24 24 24 24 24 24 23 22 22 21 20 20 19 18 18 17 17 17 16 16 16 16 15 15 15 14 14 14 14 14 13
24 24 25 25 25 25 25 25 24 23 22 22 23 24 23 23 23 23 23 23 22 22 21 20 20 19 18 18 17 17 16 16 16 16 15 15 15 15 14 14 14 14 13 13
24 24 24 24 24 24 24 24 24 24 23 22 22 22 24 23 24 23 23 23 22 22 21 20 19 19 18 17 17 17 16 16 16 15 15 15 15 14 14 14 14 13 13 13
24 23 23 24 25 25 24 24 24 22 22 23 22 22 25 24 24 24 23 23 22 21 21 20 19 18 18 17 17 16 16 16 15 15 15 14 14 14 14 13 13 13 13 13
23 22 22 22 23 24 24 24 24 23 23 22 22 22 24 24 23 23 23 22 22 21 20 19 19 18 17 17 16 16 16 15 15 15 14 14 14 13 13 13 13 13 13 13
22 22 22 21 22 23 23 23 24 23 22 22 22 23 23 23 23 22 22 22 21 20 20 19 18 18 17 17 16 16 15 15 15 15 14 14 13 13 13 13 12 12 12 12
22 21 22 23 23 23 23 23 23 23 22 22 22 22 22 23 22 22 22 21 21 20 19 18 18 17 17 16 16 16 15 15 14 14 14 14 13 13 13 12 12 12 12 12
22 21 22 22 23 23 23 23 23 23 23 22 22 22 23 23 22 22 21 21 20 19 18 18 17 17 16 16 16 15 15 14 14 14 14 13 13 13 13 12 12 12 12 11
21 21 20 21 22 22 21 22 22 22 23 22 21 22 23 22 22 21 21 20 19 18 18 17 17 17 16 16 15 15 15 14 14 13 13 13 12 12 12 12 12 11 11 11
21 20 20 20 21 20 21 22 22 22 22 22 22 21 21 21 21 20 20 19 19 18 17 17 16 16 16 15 15 15 14 14 13 13 13 12 12 12 12 11 11 11 11 11
21 20 19 19 19 20 21 21 21 21 21 21 21 21 20 20 20 19 19 18 18 17 17 16 16 16 15 15 15 14 14 13 13 13 12 12 12 11 11 11 11 11 10 10
20 20 19 19 18 19 19 20 20 20 19 20 20 20 20 20 18 18 18 17 17 17 16 16 15 15 15 14 14 14 13 13 13 12 12 12 11 11 11 11 11 10 10 10
18 18 18 18 18 19 19 19 20 18 18 19 19 19 19 18 18 17 17 16 16 16 15 15 15 14 14 14 13 13 13 12 12 12 11 11 11 11 10 10 10 10 10 9
19 18 18 18 17 18 19 19 18 18 18 18 18 18 17 17 17 16 16 15 15 15 14 14 14 14 13 13 13 12 12 12 12 11 11 11 10 10 10 10 10 9 9 9
19 19 18 18 18 18 18 18 17 17 17 17 17 17 16 16 16 15 15 14 14 14 14 13 13 13 13 12 12 12 12 11 11 11 10 10 10 10 9 9 9 9 9 8
19 19 19 18 18 18 17 17 16 16 16 16 16 16 15 15 15 14 14 14 13 13 13 13 12 12 12 12 11 11 11 11 10 10 10 9 9 9 9 9 8 8 8 8
18 18 17 17 17 17 16 16 16 15 15 15 15 15 14 14 14 14 13 13 13 12 12 12 12 11 11 11 11 11 10 10 10 10 9 9 9 8 8 8 8 8 8 8
17 17 16 16 16 16 16 15 15 15 14 14 14 14 13 13 13 13 12 12 12 12 11 11 11 11 10 10 10 10 10 10 9 9 9 8 8 8 8 7 7 7 7 7
Wind_Speed
7 6 6 6 5 5 4 3 3 2 4 4 5 6 6 7 8 7 6 6 6 7 8 7 6 5 4 3 3 5 5 5 4 3 2 2 2 2 2 2 4 5 6 6
6 8 6 4 4 6 6 5 4 3 3 4 5 6 6 7 7 6 6 6 6 6 7 8 7 6 4 4 3 4 5 5 4 3 2 2 2 1 2 2 4 5 5 4
8 3 4 5 6 7 7 6 5 5 4 6 7 7 7 8 7 6 5 5 5 5 6 8 8 7 5 4 4 4 4 5 4 4 2 2 2 2 2 2 2 3 4 4
6 5 4 6 7 7 6 4 6 7 6 5 7 5 5 7 9 8 7 5 5 4 5 7 8 7 6 5 4 4 4 4 4 4 3 2 2 1 0 1 1 1 3 3
5 4 6 7 5 5 5 5 7 9 9 9 9 7 5 8 8 8 7 6 5 5 5 6 7 7 7 6 5 4 4 4 3 3 3 2 2 1 1 1 1 1 1 1
7 6 6 5 4 5 6 8 10 10 9 9 9 7 3 5 7 8 7 6 5 5 5 6 7 6 6 6 5 4 3 3 3 3 3 3 2 1 1 0 0 0 0 1
10 10 7 5 7 7 8 7 4 5 6 6 4 5 2 3 5 5 7 6 5 5 5 6 7 7 6 6 5 4 4 3 3 3 3 2 3 2 2 1 1 0 0 1
7 8 8 7 6 5 7 8 5 4 4 3 3 3 4 6 6 6 6 6 5 5 5 5 6 7 6 6 6 5 4 3 3 3 3 2 2 2 1 1 1 0 0 0
5 3 6 6 5 7 7 6 7 8 9 7 4 3 5 6 6 6 6 6 5 5 5 5 6 7 6 5 5 5 4 4 3 3 2 2 2 2 2 1 0 0 0 1
7 6 5 6 6 8 8 7 6 6 5 6 5 3 3 6 5 4 4 5 5 4 5 5 5 5 5 5 4 4 4 3 2 1 2 1 1 1 1 1 1 1 1 0
7 8 6 7 8 7 8 9 7 6 6 5 5 1 2 4 5 4 4 4 4 4 4 5 5 5 5 5 4 3 3 3 2 2 2 2 1 1 1 1 1 1 1 1
4 5 8 7 5 5 7 8 8 6 6 6 5 1 1 4 3 3 3 4 4 4 4 5 5 5 4 4 4 3 3 3 3 2 2 2 1 1 1 1 1 1 1 1
4 5 7 5 5 7 7 8 8 7 7 7 7 2 3 4 3 3 3 4 4 4 4 4 5 4 4 3 3 3 3 2 2 2 2 2 2 1 1 1 1 0 1 1
3 7 8 7 4 4 7 8 8 8 7 8 8 4 1 2 1 2 3 3 4 4 4 3 4 4 3 3 3 3 3 3 2 2 2 2 2 1 1 1 0 1 1 1
5 8 10 10 9 9 10 10 10 11 10 10 9 7 3 2 1 1 1 3 3 3 3 3 2 3 3 3 2 2 2 3 3 2 2 2 1 1 1 1 0 0 1 2
6 8 9 11 11 10 12 12 12 11 11 12 11 7 2 2 2 2 1 1 2 2 2 2 2 2 3 3 3 2 2 2 2 2 2 2 1 1 1 1 1 0 1 1
5 7 8 9 9 10 11 9 9 9 8 8 8 5 3 2 3 2 1 0 2 2 1 1 2 1 1 2 2 2 2 2 2 2 2 1 1 1 1 1 1 1 1 1
7 7 5 7 9 10 3 1 2 4 5 4 3 2 3 3 3 3 2 1 1 2 1 1 1 0 0 0 1 2 2 2 2 2 2 2 1 1 1 1 1 2 1 1
7 7 6 6 8 8 3 1 2 3 3 4 3 2 3 3 1 1 4 3 2 2 2 1 1 1 1 1 1 1 2 2 2 2 1 2 2 1 1 1 2 1 1 1
7 7 7 6 7 7 1 2 3 3 2 3 3 3 2 2 2 1 4 4 3 3 2 2 1 1 1 1 2 1 0 2 2 1 1 1 2 2 2 2 2 1 1 2
6 7 8 9 9 5 1 1 1 2 2 5 4 4 3 3 3 3 4 4 4 3 2 2 1 1 1 2 1 0 0 1 1 1 1 1 1 1 1 1 1 1 1 1
6 5 7 7 8 5 2 0 1 2 4 4 5 4 4 4 5 5 4 4 3 3 2 2 1 1 1 1 1 0 0 0 1 1 1 1 1 0 0 0 1 1 1 1
4 3 3 3 2 2 1 2 3 4 4 4 4 4 3 3 3 4 4 4 3 2 2 1 1 0 1 1 1 0 0 1 1 1 1 1 1 1 0 0 1 1 1 1
3 3 4 4 2 1 2 3 3 4 4 4 4 4 4 3 3 3 3 3 3 2 2 1 1 0 0 1 1 1 1 1 1 1 1 1 1 0 0 0 1 1 1 1
4 3 5 6 4 2 0 2 3 3 3 3 3 3 3 3 2 2 3 3 2 2 2 1 0 1 1 0 1 1 1 1 0 1 1 1 0 1 0 1 1 1 1 1
7 6 6 5 3 3 2 2 2 3 3 3 3 3 3 3 3 3 3 2 2 2 2 1 1 1 1 1 1 1 0 0 1 1 1 1 1 1 1 1 1 3 1 1
Wind_Direction
210 226 231 233 236 256 271 262 255 236 173 200 220 222 203 197 189 190 185 188 183 174 166 158 149 140 132 120 105 111 113 97 90 78 75 72 52 39 44 34 38 38 30 28
214 223 233 244 251 250 264 260 253 247 219 231 233 235 216 201 192 194 192 187 183 178 164 154 149 145 145 136 128 116 116 111 105 93 94 93 84 54 61 33 28 29 33 25
226 222 202 229 243 247 246 255 263 267 260 250 252 247 226 185 179 176 181 184 181 178 164 155 154 155 151 146 139 124 120 118 114 108 92 74 61 40 40 44 32 8 26 29
237 235 229 231 242 256 257 265 269 269 265 256 243 254 230 186 174 173 174 176 175 172 163 155 156 157 155 151 141 135 130 126 127 127 116 110 98 88 352 41 62 21 28 33
240 222 228 242 248 263 277 285 269 263 263 266 253 259 220 174 179 168 164 164 168 169 166 158 153 157 159 157 152 152 149 143 142 146 148 155 141 149 106 63 49 22 5 17
247 245 240 248 251 253 270 265 260 254 253 257 247 248 213 186 169 156 155 152 159 162 161 155 152 151 157 154 150 159 160 150 151 166 168 171 151 142 129 101 81 353 353 318
227 222 217 228 246 227 243 259 258 239 227 241 224 234 164 131 124 137 144 145 148 151 153 156 156 152 152 152 157 168 161 162 168 188 195 191 162 170 172 181 189 187 117 324
240 215 198 203 236 250 244 250 259 275 271 271 235 220 129 124 125 129 132 133 141 142 140 146 151 149 155 161 164 170 172 179 184 193 204 191 160 161 146 172 133 138 135 205
280 220 172 186 224 251 253 252 268 280 287 284 242 176 157 133 135 141 143 137 141 142 141 148 149 149 156 160 165 175 172 174 186 195 172 159 160 147 143 183 127 166 202 227
279 279 216 186 214 230 253 272 268 260 276 277 272 239 167 151 152 142 138 136 141 140 138 137 134 143 149 149 160 174 165 169 168 149 134 121 116 110 147 167 187 222 254 170
275 273 239 203 212 226 227 243 257 268 263 272 286 329 107 137 144 147 135 125 135 132 131 130 136 142 145 143 146 146 145 143 150 163 146 142 143 177 160 189 217 231 264 236
267 273 264 234 215 231 246 251 258 264 273 276 277 257 78 113 121 132 133 130 129 122 125 126 132 134 134 136 140 147 153 155 159 171 165 155 169 190 191 225 224 227 256 271
314 269 267 237 210 212 233 243 256 271 273 267 270 222 129 113 113 111 118 118 125 127 125 125 126 129 138 140 149 150 151 148 151 158 154 157 160 175 208 262 262 271 269 276
298 265 265 268 278 271 252 254 257 263 265 271 274 280 172 130 112 79 103 121 129 123 116 109 119 139 143 154 155 151 153 156 154 153 155 152 159 165 195 213 222 263 282 280
260 264 273 281 286 279 272 267 259 254 262 271 284 293 293 319 105 84 56 111 123 126 119 122 132 143 152 166 159 144 165 160 154 153 145 142 152 149 154 151 224 283 297 294
250 269 276 279 275 275 270 264 260 259 260 266 276 282 289 356 39 58 27 97 119 119 118 130 151 165 179 174 159 150 159 151 146 149 144 144 144 134 153 178 193 234 268 272
247 267 282 278 279 277 264 259 253 252 255 266 272 291 338 6 358 10 351 104 120 119 118 148 177 185 199 161 153 154 153 156 158 144 129 124 120 122 158 205 185 217 243 240
267 273 271 274 277 260 248 350 314 272 274 289 287 336 354 0 2 5 13 68 127 121 114 91 81 95 139 129 145 144 139 146 134 123 134 136 137 147 185 197 220 233 227 225
246 258 263 265 272 271 249 316 328 293 293 346 337 359 4 19 4 14 28 39 64 96 100 98 100 79 91 62 75 130 148 132 125 128 136 139 140 159 203 220 227 235 226 239
233 242 250 259 264 266 314 38 2 311 271 27 17 6 351 333 299 360 31 29 57 61 75 78 82 82 95 81 57 57 123 116 124 138 145 141 164 188 212 226 228 234 234 245
214 227 236 250 257 261 2 25 302 260 7 22 13 8 1 357 359 11 22 26 41 50 66 70 81 87 103 100 84 343 32 76 110 114 131 136 160 203 204 205 241 230 225 241
233 233 238 244 250 251 47 114 284 5 28 17 9 15 20 19 21 17 18 23 31 32 46 52 54 70 100 118 119 295 284 49 81 118 143 144 152 235 210 198 237 234 217 235
239 251 265 257 257 68 62 55 22 16 8 1 355 6 18 20 22 12 8 5 6 23 39 54 49 25 97 106 115 255 23 69 81 101 130 139 130 75 49 243 226 231 226 239
270 282 269 267 253 335 49 38 21 5 350 350 1 5 8 7 7 359 352 347 349 11 21 27 28 348 346 120 111 76 71 94 124 157 166 143 135 127 199 279 249 232 222 229
301 304 280 277 282 299 23 17 3 344 343 354 359 2 356 349 350 348 343 343 352 5 3 356 343 305 306 90 105 80 79 96 167 199 192 168 159 140 68 22 0 330 311 242
268 265 260 265 272 282 297 322 345 344 346 354 358 357 358 344 338 347 344 345 354 350 347 338 303 290 306 359 74 58 63 163 203 208 213 189 171 161 153 147 15 9 342 358
Height
1501 1504 1505 1502 1500 1502 1502 1505 1509 1506 1503 1507 1510 1511 1510 1511 1513 1515 1517 1519 1520 1522 1524 1526 1528 1530 1531 1532 1532 1533 1533 1534 1534 1534 1535 1535 1535 1535 1535 1536 1535 1535 1535 1535
1501 1504 1500 1499 1499 1500 1502 1507 1508 1506 1502 1504 1508 1508 1506 1507 1509 1511 1513 1516 1518 1520 1522 1524 1526 1528 1530 1531 1532 1532 1533 1533 1534 1534 1534 1535 1535 1535 1535 1535 1535 1535 1535 1534
1501 1499 1497 1499 1501 1502 1503 1506 1507 1507 1504 1502 1506 1510 1504 1503 1506 1509 1511 1513 1516 1518 1520 1522 1524 1526 1528 1530 1531 1532 1532 1533 1533 1534 1534 1534 1534 1534 1534 1534 1534 1534 1534 1534
1497 1496 1497 1499 1501 1502 1506 1501 1502 1504 1509 1510 1507 1518 1507 1500 1503 1506 1509 1511 1513 1516 1518 1520 1522 1524 1526 1528 1530 1531 1532 1532 1532 1533 1533 1533 1533 1533 1534 1534 1533 1533 1533 1533
1497 1495 1498 1500 1499 1500 1502 1499 1501 1503 1506 1508 1504 1510 1506 1498 1503 1504 1506 1509 1511 1514 1516 1518 1520 1522 1524 1526 1528 1529 1530 1531 1531 1532 1532 1532 1533 1533 1533 1533 1533 1532 1532 1532
1495 1494 1495 1496 1497 1499 1499 1500 1500 1500 1504 1517 1504 1508 1509 1499 1498 1500 1503 1507 1509 1512 1514 1516 1518 1521 1523 1525 1526 1528 1529 1529 1530 1531 1531 1531 1532 1532 1532 1532 1531 1531 1531 1531
1496 1493 1493 1495 1498 1498 1500 1508 1518 1519 1519 1513 1495 1501 1504 1494 1493 1497 1500 1504 1508 1510 1512 1514 1516 1518 1521 1522 1524 1526 1527 1528 1528 1529 1530 1530 1530 1530 1530 1530 1530 1530 1529 1529
1499 1500 1492 1493 1497 1500 1499 1504 1519 1527 1521 1509 1498 1502 1500 1491 1493 1496 1499 1503 1506 1508 1510 1513 1515 1516 1518 1520 1522 1523 1525 1526 1527 1527 1528 1529 1529 1529 1529 1529 1529 1528 1528 1528
1496 1497 1489 1490 1493 1496 1500 1501 1499 1507 1507 1511 1502 1498 1494 1491 1494 1496 1499 1502 1505 1507 1509 1511 1513 1515 1517 1519 1520 1522 1523 1524 1524 1525 1526 1527 1527 1527 1527 1527 1527 1527 1527 1526
1493 1497 1490 1490 1493 1494 1495 1496 1501 1507 1518 1521 1507 1500 1501 1496 1496 1496 1498 1501 1504 1506 1508 1510 1512 1514 1515 1517 1519 1520 1521 1522 1522 1523 1524 1524 1524 1525 1525 1525 1525 1525 1525 1524
1492 1497 1494 1491 1494 1496 1496 1498 1498 1501 1503 1517 1519 1511 1490 1492 1493 1495 1497 1500 1503 1505 1507 1509 1511 1513 1514 1516 1517 1518 1519 1520 1520 1521 1521 1522 1522 1522 1522 1523 1522 1522 1522 1522
1492 1496 1497 1491 1487 1488 1491 1493 1497 1509 1508 1504 1511 1510 1487 1489 1492 1494 1496 1499 1502 1504 1506 1508 1510 1511 1513 1514 1515 1516 1517 1517 1518 1518 1519 1519 1519 1520 1520 1520 1520 1520 1520 1520
1495 1498 1504 1501 1497 1492 1491 1491 1492 1496 1501 1505 1511 1507 1488 1490 1492 1493 1495 1498 1500 1503 1505 1506 1508 1509 1511 1512 1513 1514 1515 1516 1516 1516 1516 1516 1517 1517 1517 1518 1518 1518 1518 1518
1497 1498 1502 1507 1500 1492 1493 1492 1491 1496 1504 1504 1500 1497 1492 1491 1492 1494 1495 1497 1499 1501 1503 1505 1507 1508 1509 1511 1512 1512 1513 1513 1513 1514 1514 1514 1514 1514 1515 1515 1515 1515 1516 1515
1496 1498 1494 1491 1488 1488 1490 1490 1490 1494 1495 1500 1496 1493 1491 1490 1491 1493 1495 1496 1498 1500 1502 1504 1505 1507 1508 1509 1509 1510 1510 1511 1511 1511 1511 1511 1512 1512 1512 1512 1512 1513 1513 1513
1495 1496 1495 1493 1487 1487 1489 1487 1488 1489 1489 1491 1491 1491 1487 1489 1490 1492 1494 1495 1497 1499 1501 1502 1504 1505 1506 1507 1507 1507 1508 1508 1509 1509 1509 1509 1509 1509 1509 1509 1510 1510 1510 1510
1495 1496 1499 1498 1489 1489 1492 1485 1485 1486 1485 1488 1492 1491 1487 1488 1490 1492 1493 1494 1496 1497 1499 1501 1502 1503 1504 1504 1505 1505 1505 1506 1506 1506 1506 1506 1506 1506 1506 1507 1507 1507 1507 1508
1495 1496 1498 1499 1496 1504 1490 1481 1481 1484 1484 1484 1485 1486 1488 1490 1491 1492 1493 1493 1494 1496 1497 1499 1500 1501 1501 1502 1502 1503 1503 1503 1503 1503 1504 1504 1503 1503 1504 1504 1504 1504 1504 1505
1493 1496 1500 1500 1501 1494 1486 1482 1483 1486 1487 1485 1485 1487 1488 1489 1491 1492 1493 1493 1493 1494 1495 1496 1498 1499 1499 1499 1500 1501 1501 1501 1501 1501 1501 1500 1501 1501 1501 1501 1501 1501 1501 1502
1491 1493 1499 1500 1504 1502 1492 1485 1484 1487 1491 1486 1486 1487 1489 1489 1493 1494 1493 1493 1492 1493 1494 1495 1496 1496 1497 1497 1498 1498 1498 1498 1498 1498 1498 1498 1498 1498 1498 1498 1498 1498 1498 1499
1494 1495 1498 1500 1500 1492 1488 1485 1485 1495 1495 1488 1488 1488 1489 1490 1493 1493 1492 1492 1492 1492 1492 1493 1493 1494 1495 1495 1495 1496 1496 1495 1495 1496 1496 1495 1495 1495 1495 1495 1495 1495 1495 1496
1490 1494 1495 1494 1498 1497 1487 1486 1489 1491 1489 1489 1489 1489 1490 1490 1491 1492 1492 1491 1491 1491 1491 1491 1491 1492 1492 1493 1493 1493 1493 1493 1493 1493 1493 1492 1493 1493 1493 1493 1493 1493 1493 1492
1484 1486 1488 1489 1492 1488 1487 1488 1489 1489 1489 1489 1489 1489 1490 1491 1491 1491 1491 1491 1490 1490 1489 1489 1489 1490 1490 1490 1490 1491 1491 1491 1490 1490 1490 1489 1490 1490 1490 1490 1490 1490 1490 1489
1481 1482 1483 1485 1485 1485 1486 1487 1488 1489 1489 1489 1489 1490 1490 1490 1490 1490 1490 1490 1489 1489 1488 1488 1488 1487 1488 1488 1488 1488 1488 1488 1487 1487 1487 1487 1487 1487 1487 1487 1487 1487 1486 1486
1483 1483 1483 1484 1484 1485 1486 1487 1488 1488 1488 1488 1489 1489 1489 1489 1489 1489 1489 1489 1488 1488 1487 1487 1486 1485 1485 1485 1485 1485 1485 1485 1484 1484 1484 1484 1484 1484 1484 1483 1483 1483 1483 1483
1482 1483 1484 1484 1484 1484 1485 1485 1486 1487 1487 1488 1488 1488 1488 1488 1488 1488 1487 1487 1487 1486 1485 1485 1484 1483 1483 1483 1482 1482 1482 1482 1481 1481 1481 1481 1481 1481 1481 1480 1480 1480 1481 1480